Tracking 30101 objects as of 14-Dec-2024
HD Live streaming from Space Station
objects crossing your sky now

OVZON-3

Track OVZON-3 now!
OVZON-3 is classified as:


NORAD ID: 58698
Int'l Code: 2024-003A
Perigee: 35,786.8 km
Apogee: 35,799.1 km
Inclination: 0.0 °
Period: 1,436.1 minutes
Semi major axis: 42163 km
RCS: Unknown
Launch date: January 3, 2024
Source: Sweden (SWED)
Launch site: AIR FORCE EASTERN TEST RANGE (AFETR)
Your satellite tracking list
Your tracking list is empty




NASA's NSSDC Master Catalog

Two Line Element Set (TLE):
1 58698U 24003A   24348.53519581  .00000064  00000-0  00000-0 0  9993
2 58698   0.0182 349.1929 0001467 256.8247  89.0673  1.00274590  1910
Source of the keplerian elements: AFSPC